Flag for Montenegro Weather past 2 weeks in Nikšić, Montenegro

Now
55 °F

Passing clouds.


Feels Like: 55 °F
Forecast: 54 / 73 °F
Wind: 2 mph from Northeast

Location: Niksic

Current Time: Jul 14, 2014 at 8:23:36 AM

Latest Report: Jul 14, 2014 at 7:00 AM


Visibility: 13 mi

Pressure: 30.01 "Hg

Humidity: 99%

Dew point: 54 °F

Location of NikšićLocation

Historic Weather in Nikšić — Graph

°F

Nikšić temperature yesterday

Maximum temperature yesterday: 65 °F (at 7:00 PM)
Minimum temperature yesterday: 59 °F (at 5:00 AM)
Average temperature yesterday: 62 °F

Past Weeks' High & Low Weather Summary

 TemperatureHumidityPressure
High83 °F (Jul 7, 12:00 PM)100% (Jun 29, 7:00 AM)31.11 "Hg (Jun 29, 7:00 AM)
Low51 °F (Jul 11, 6:00 AM)24% (Jul 4, 6:00 PM)29.72 "Hg (Jul 11, 12:00 PM)
Average67 °F79%30.01 "Hg
* Reported Jun 29 7:00 AM — Jul 14 7:00 AM, Nikšić, Weather by CustomWeather, © 2014

Note: Actual official high and low records may vary slightly from our data, if they occured in-between our weather recording intervals... More about our weather records

Advertising

Nikšić weather history for previous 24 hours

 ConditionsComfort  
Time TempWeatherWind HumidityBarometerVisibility
7:00 AM
Jul 14
55 °FPassing clouds.2 mph99%30.01 "Hg12 mi
6:00 AM52 °FPassing clouds.3 mph100%30.03 "Hg12 mi
5:00 AM53 °FPassing clouds.3 mph100%30.03 "Hg12 mi
2:00 AM56 °FPassing clouds.2 mph100%30.03 "Hg12 mi
11:00 PM
Jul 13
59 °FPassing clouds.2 mph99%30.00 "Hg12 mi
10:00 PM59 °FPassing clouds.5 mph100%30.00 "Hg12 mi
9:00 PM62 °FOvercast.3 mph100%29.97 "Hg12 mi
8:00 PM65 °FOvercast.5 mph100%29.95 "Hg12 mi
7:00 PM65 °FOvercast.5 mph99%29.95 "Hg12 mi
6:00 PM65 °FPartly sunny.6 mph100%29.95 "Hg12 mi
5:00 PM65 °FPartly sunny.6 mph100%29.96 "Hg12 mi
4:00 PM64 °FThunderstorms. Partly sunny.5 mph99%29.98 "Hg12 mi
3:00 PM60 °FRain. Overcast.6 mph99%30.03 "Hg11 mi
2:00 PM60 °FRain. Overcast.2 mph100%30.04 "Hg11 mi
1:00 PM62 °FThunderstorms. Overcast.2 mph100%30.01 "Hg11 mi
12:00 PM63 °FLight rain. Overcast.2 mph99%29.99 "Hg11 mi
11:00 AM64 °FLight rain. Overcast.5 mph100%29.98 "Hg12 mi
8:00 AM61 °FPartly sunny.2 mph100%29.98 "Hg12 mi
Weather by CustomWeather, © 2014

See weather overviewHow to use our weather pages